SITE: BDASe,YEAR: 2010,,,,,,
2010date,time,pzhd (cm),gw temp (C),DWT (cm),WT elev (m),,
01/01/10,0:00,264.5,12.9,103.8,1372.439,,Depth to water table:
01/01/10,0:30,264.9,12.9,103.4,1372.443,,DWT = SCL - CH - h (all values in cm)
01/01/10,1:00,264.9,12.8,103.4,1372.443,,where
01/01/10,1:30,265.1,12.9,103.2,1372.445,,SCL = sensor cable length = 516.0 cm
01/01/10,2:00,265.0,12.9,103.3,1372.444,,CH = casing height of well = 147.4 cm
01/01/10,2:30,265.4,12.9,102.9,1372.448,,h = height of water above sensor (from pzhd column)
01/01/10,3:00,265.8,12.9,102.5,1372.452,,
01/01/10,3:30,265.1,12.9,103.2,1372.445,,WT elevation:
01/01/10,4:00,264.9,12.9,103.4,1372.443,,Sensor elev = 1369.794 m asl
01/01/10,4:30,264.7,12.8,103.6,1372.441,,WT elev = sensor elev + h (from pzhd column)
01/01/10,5:00,264.9,12.9,103.4,1372.443,,
01/01/10,5:30,264.8,12.9,103.5,1372.442,,
01/01/10,6:00,264.8,12.9,103.5,1372.442,,
01/01/10,6:30,265.4,12.9,102.9,1372.448,,Dates with missing data (# 0.5 hr data points):
01/01/10,7:00,265.4,12.9,102.9,1372.448,,3/31 (2).
01/01/10,7:30,265.6,12.9,102.7,1372.450,,
01/01/10,8:00,265.5,12.9,102.8,1372.449,,Dates w/missing T data:
01/01/10,8:30,266.0,12.9,102.3,1372.454,,"Jan 28, Feb 5, Jun 7, Jul 8, Aug 15, Sep 16, Nov 8, 28, Dec 27."
01/01/10,9:00,265.7,12.8,102.6,1372.451,,
01/01/10,9:30,265.8,12.9,102.5,1372.452,,
01/01/10,10:00,265.1,12.9,103.2,1372.445,,
01/01/10,10:30,264.8,12.9,103.5,1372.442,,
01/01/10,11:00,265.0,12.9,103.3,1372.444,,
01/01/10,11:30,264.9,12.9,103.4,1372.443,,
01/01/10,12:00,265.6,12.9,102.7,1372.450,,
01/01/10,12:30,266.0,12.9,102.3,1372.454,,
01/01/10,13:00,265.6,12.9,102.7,1372.450,,
01/01/10,13:30,265.4,12.9,102.9,1372.448,,
01/01/10,14:00,266.4,12.9,101.9,1372.458,,
01/01/10,14:30,266.9,12.9,101.4,1372.463,,
01/01/10,15:00,266.3,12.8,102.0,1372.457,,
01/01/10,15:30,266.8,12.9,101.5,1372.462,,
01/01/10,16:00,266.4,12.9,101.9,1372.458,,
01/01/10,16:30,266.9,12.9,101.4,1372.463,,
01/01/10,17:00,266.8,12.9,101.5,1372.462,,
01/01/10,17:30,266.3,12.8,102.0,1372.457,,
01/01/10,18:00,267.2,12.9,101.1,1372.466,,
01/01/10,18:30,266.6,12.9,101.7,1372.460,,
01/01/10,19:00,266.6,12.9,101.7,1372.460,,
01/01/10,19:30,266.0,12.9,102.3,1372.454,,
01/01/10,20:00,266.1,12.9,102.2,1372.455,,
01/01/10,20:30,265.9,12.9,102.4,1372.453,,
01/01/10,21:00,266.4,12.9,101.9,1372.458,,
01/01/10,21:30,266.1,12.9,102.2,1372.455,,
01/01/10,22:00,265.4,12.9,102.9,1372.448,,
01/01/10,22:30,266.0,12.9,102.3,1372.454,,
01/01/10,23:00,266.1,12.9,102.2,1372.455,,
01/01/10,23:30,265.9,12.8,102.4,1372.453,,
01/02/10,0:00,266.1,12.9,102.2,1372.455,,
01/02/10,0:30,266.1,12.9,102.2,1372.455,,
01/02/10,1:00,265.8,12.8,102.5,1372.452,,
01/02/10,1:30,266.0,12.8,102.3,1372.454,,
01/02/10,2:00,266.1,12.9,102.2,1372.455,,
01/02/10,2:30,266.0,12.9,102.3,1372.454,,
01/02/10,3:00,266.3,12.9,102.0,1372.457,,
01/02/10,3:30,266.2,12.8,102.1,1372.456,,
01/02/10,4:00,266.7,12.8,101.6,1372.461,,
01/02/10,4:30,266.8,12.9,101.5,1372.462,,
01/02/10,5:00,266.7,12.9,101.6,1372.461,,
01/02/10,5:30,266.6,12.9,101.7,1372.460,,
01/02/10,6:00,266.9,12.8,101.4,1372.463,,
01/02/10,6:30,266.9,12.8,101.4,1372.463,,
01/02/10,7:00,266.6,12.8,101.7,1372.460,,
01/02/10,7:30,266.9,12.8,101.4,1372.463,,
01/02/10,8:00,267.0,12.8,101.3,1372.464,,
01/02/10,8:30,266.3,12.9,102.0,1372.457,,
01/02/10,9:00,266.5,12.9,101.8,1372.459,,
01/02/10,9:30,266.7,12.9,101.6,1372.461,,
01/02/10,10:00,266.1,12.8,102.2,1372.455,,
01/02/10,10:30,265.9,12.9,102.4,1372.453,,
01/02/10,11:00,266.0,12.9,102.3,1372.454,,
01/02/10,11:30,266.4,12.8,101.9,1372.458,,
01/02/10,12:00,266.4,12.8,101.9,1372.458,,
01/02/10,12:30,266.7,12.8,101.6,1372.461,,
01/02/10,13:00,266.5,12.8,101.8,1372.459,,
01/02/10,13:30,267.1,12.8,101.2,1372.465,,
01/02/10,14:00,267.1,12.8,101.2,1372.465,,
01/02/10,14:30,267.0,12.9,101.3,1372.464,,
01/02/10,15:00,266.7,12.8,101.6,1372.461,,
01/02/10,15:30,267.1,12.8,101.2,1372.465,,
01/02/10,16:00,266.9,12.8,101.4,1372.463,,
01/02/10,16:30,266.9,12.9,101.4,1372.463,,
01/02/10,17:00,266.8,12.9,101.5,1372.462,,
01/02/10,17:30,266.8,12.8,101.5,1372.462,,
01/02/10,18:00,267.0,12.9,101.3,1372.464,,
01/02/10,18:30,266.7,12.8,101.6,1372.461,,
01/02/10,19:00,266.7,12.8,101.6,1372.461,,
01/02/10,19:30,266.6,12.8,101.7,1372.460,,
01/02/10,20:00,266.1,12.9,102.2,1372.455,,
01/02/10,20:30,266.2,12.9,102.1,1372.456,,
01/02/10,21:00,266.7,12.9,101.6,1372.461,,
01/02/10,21:30,266.5,12.9,101.8,1372.459,,
01/02/10,22:00,266.6,12.8,101.7,1372.460,,
01/02/10,22:30,265.8,12.8,102.5,1372.452,,
01/02/10,23:00,265.8,12.8,102.5,1372.452,,
01/02/10,23:30,266.1,12.8,102.2,1372.455,,
01/03/10,0:00,266.1,12.8,102.2,1372.455,,
01/03/10,0:30,266.2,12.9,102.1,1372.456,,
01/03/10,1:00,266.5,12.9,101.8,1372.459,,
01/03/10,1:30,266.4,12.8,101.9,1372.458,,
01/03/10,2:00,265.5,12.8,102.8,1372.449,,
01/03/10,2:30,266.4,12.8,101.9,1372.458,,
01/03/10,3:00,266.1,12.9,102.2,1372.455,,
01/03/10,3:30,265.8,12.8,102.5,1372.452,,
01/03/10,4:00,266.0,12.8,102.3,1372.454,,
01/03/10,4:30,266.6,12.8,101.7,1372.460,,
01/03/10,5:00,266.4,12.8,101.9,1372.458,,
01/03/10,5:30,265.9,12.8,102.4,1372.453,,
01/03/10,6:00,266.5,12.8,101.8,1372.459,,
01/03/10,6:30,265.6,12.9,102.7,1372.450,,
01/03/10,7:00,266.9,12.8,101.4,1372.463,,
01/03/10,7:30,266.5,12.8,101.8,1372.459,,
01/03/10,8:00,266.4,12.9,101.9,1372.458,,
01/03/10,8:30,266.0,12.8,102.3,1372.454,,
01/03/10,9:00,266.4,12.8,101.9,1372.458,,
01/03/10,9:30,266.5,12.8,101.8,1372.459,,
01/03/10,10:00,266.9,12.8,101.4,1372.463,,
01/03/10,10:30,266.0,12.8,102.3,1372.454,,
01/03/10,11:00,266.2,12.8,102.1,1372.456,,
01/03/10,11:30,265.6,12.8,102.7,1372.450,,
01/03/10,12:00,265.9,12.8,102.4,1372.453,,
01/03/10,12:30,265.6,12.8,102.7,1372.450,,
01/03/10,13:00,265.8,12.9,102.5,1372.452,,
01/03/10,13:30,266.2,12.9,102.1,1372.456,,
01/03/10,14:00,266.4,12.8,101.9,1372.458,,
01/03/10,14:30,266.4,12.8,101.9,1372.458,,
01/03/10,15:00,266.4,12.8,101.9,1372.458,,
01/03/10,15:30,266.2,12.8,102.1,1372.456,,
01/03/10,16:00,266.4,12.8,101.9,1372.458,,
01/03/10,16:30,266.5,12.8,101.8,1372.459,,
01/03/10,17:00,266.5,12.8,101.8,1372.459,,
01/03/10,17:30,266.3,12.8,102.0,1372.457,,
01/03/10,18:00,266.2,12.8,102.1,1372.456,,
01/03/10,18:30,266.3,12.9,102.0,1372.457,,
01/03/10,19:00,266.5,12.9,101.8,1372.459,,
01/03/10,19:30,266.1,12.8,102.2,1372.455,,
01/03/10,20:00,265.7,12.8,102.6,1372.451,,
01/03/10,20:30,265.7,12.8,102.6,1372.451,,
01/03/10,21:00,266.2,12.8,102.1,1372.456,,
01/03/10,21:30,266.1,12.8,102.2,1372.455,,
01/03/10,22:00,265.7,12.8,102.6,1372.451,,
01/03/10,22:30,266.4,12.8,101.9,1372.458,,
01/03/10,23:00,266.6,12.9,101.7,1372.460,,
01/03/10,23:30,266.8,12.8,101.5,1372.462,,
01/04/10,0:00,266.0,12.8,102.3,1372.454,,
01/04/10,0:30,266.2,12.8,102.1,1372.456,,
01/04/10,1:00,266.4,12.8,101.9,1372.458,,
01/04/10,1:30,266.3,12.8,102.0,1372.457,,
01/04/10,2:00,266.2,12.8,102.1,1372.456,,
01/04/10,2:30,266.6,12.8,101.7,1372.460,,
01/04/10,3:00,266.6,12.8,101.7,1372.460,,
01/04/10,3:30,266.7,12.8,101.6,1372.461,,
01/04/10,4:00,266.2,12.8,102.1,1372.456,,
01/04/10,4:30,266.8,12.8,101.5,1372.462,,
01/04/10,5:00,266.3,12.8,102.0,1372.457,,
01/04/10,5:30,266.1,12.8,102.2,1372.455,,
01/04/10,6:00,266.0,12.8,102.3,1372.454,,
01/04/10,6:30,265.9,12.8,102.4,1372.453,,
01/04/10,7:00,265.9,12.8,102.4,1372.453,,
01/04/10,7:30,266.0,12.8,102.3,1372.454,,
01/04/10,8:00,266.4,12.8,101.9,1372.458,,
01/04/10,8:30,266.4,12.8,101.9,1372.458,,
01/04/10,9:00,266.1,12.8,102.2,1372.455,,
01/04/10,9:30,266.4,12.8,101.9,1372.458,,
01/04/10,10:00,265.7,12.8,102.6,1372.451,,
01/04/10,10:30,266.0,12.9,102.3,1372.454,,
01/04/10,11:00,265.9,12.9,102.4,1372.453,,
01/04/10,11:30,265.9,12.8,102.4,1372.453,,
01/04/10,12:00,266.6,12.8,101.7,1372.460,,
01/04/10,12:30,266.3,12.8,102.0,1372.457,,
01/04/10,13:00,266.7,12.8,101.6,1372.461,,
01/04/10,13:30,267.3,12.8,101.0,1372.467,,
01/04/10,14:00,266.6,12.8,101.7,1372.460,,
01/04/10,14:30,266.9,12.8,101.4,1372.463,,
01/04/10,15:00,267.0,12.8,101.3,1372.464,,
01/04/10,15:30,266.9,12.8,101.4,1372.463,,
01/04/10,16:00,266.9,12.8,101.4,1372.463,,
01/04/10,16:30,267.1,12.8,101.2,1372.465,,
01/04/10,17:00,267.1,12.8,101.2,1372.465,,
01/04/10,17:30,267.3,12.7,101.0,1372.467,,
01/04/10,18:00,267.5,12.8,100.8,1372.469,,
01/04/10,18:30,267.0,12.8,101.3,1372.464,,
01/04/10,19:00,266.7,12.8,101.6,1372.461,,
01/04/10,19:30,266.4,12.8,101.9,1372.458,,
01/04/10,20:00,266.7,12.8,101.6,1372.461,,
01/04/10,20:30,266.8,12.8,101.5,1372.462,,
01/04/10,21:00,267.0,12.8,101.3,1372.464,,
01/04/10,21:30,266.9,12.8,101.4,1372.463,,
01/04/10,22:00,267.2,12.8,101.1,1372.466,,
01/04/10,22:30,267.1,12.8,101.2,1372.465,,
01/04/10,23:00,266.6,12.8,101.7,1372.460,,
01/04/10,23:30,266.8,12.8,101.5,1372.462,,
01/05/10,0:00,266.9,12.8,101.4,1372.463,,
01/05/10,0:30,266.4,12.9,101.9,1372.458,,
01/05/10,1:00,266.3,12.8,102.0,1372.457,,
01/05/10,1:30,266.6,12.8,101.7,1372.460,,
01/05/10,2:00,266.6,12.8,101.7,1372.460,,
01/05/10,2:30,266.4,12.8,101.9,1372.458,,
01/05/10,3:00,266.4,12.8,101.9,1372.458,,
01/05/10,3:30,266.7,12.8,101.6,1372.461,,
01/05/10,4:00,266.8,12.8,101.5,1372.462,,
01/05/10,4:30,267.2,12.8,101.1,1372.466,,
01/05/10,5:00,267.0,12.7,101.3,1372.464,,
01/05/10,5:30,267.0,12.8,101.3,1372.464,,
01/05/10,6:00,267.2,12.8,101.1,1372.466,,
01/05/10,6:30,267.3,12.8,101.0,1372.467,,
01/05/10,7:00,267.0,12.8,101.3,1372.464,,
01/05/10,7:30,267.2,12.8,101.1,1372.466,,
01/05/10,8:00,266.8,12.8,101.5,1372.462,,
01/05/10,8:30,267.1,12.8,101.2,1372.465,,
01/05/10,9:00,267.0,12.8,101.3,1372.464,,
01/05/10,9:30,267.2,12.8,101.1,1372.466,,
01/05/10,10:00,266.1,12.8,102.2,1372.455,,
01/05/10,10:30,266.4,12.8,101.9,1372.458,,
01/05/10,11:00,266.8,12.8,101.5,1372.462,,
01/05/10,11:30,267.0,12.8,101.3,1372.464,,
01/05/10,12:00,267.0,12.8,101.3,1372.464,,
01/05/10,12:30,267.9,12.8,100.4,1372.473,,
01/05/10,13:00,267.0,12.8,101.3,1372.464,,
01/05/10,13:30,267.7,12.8,100.6,1372.471,,
01/05/10,14:00,267.5,12.8,100.8,1372.469,,
01/05/10,14:30,267.8,12.8,100.5,1372.472,,
01/05/10,15:00,267.4,12.8,100.9,1372.468,,
01/05/10,15:30,267.6,12.8,100.7,1372.470,,
01/05/10,16:00,267.5,12.8,100.8,1372.469,,
01/05/10,16:30,267.2,12.8,101.1,1372.466,,
01/05/10,17:00,267.6,12.8,100.7,1372.470,,
01/05/10,17:30,267.7,12.8,100.6,1372.471,,
01/05/10,18:00,268.0,12.8,100.3,1372.474,,
01/05/10,18:30,267.7,12.7,100.6,1372.471,,
01/05/10,19:00,267.9,12.8,100.4,1372.473,,
01/05/10,19:30,267.0,12.8,101.3,1372.464,,
01/05/10,20:00,267.1,12.8,101.2,1372.465,,
01/05/10,20:30,267.2,12.8,101.1,1372.466,,
01/05/10,21:00,267.3,12.8,101.0,1372.467,,
01/05/10,21:30,267.7,12.8,100.6,1372.471,,
01/05/10,22:00,267.6,12.8,100.7,1372.470,,
01/05/10,22:30,267.5,12.8,100.8,1372.469,,
01/05/10,23:00,267.3,12.8,101.0,1372.467,,
01/05/10,23:30,267.1,12.8,101.2,1372.465,,
01/06/10,0:00,267.0,12.8,101.3,1372.464,,
01/06/10,0:30,267.3,12.7,101.0,1372.467,,
01/06/10,1:00,267.0,12.7,101.3,1372.464,,
01/06/10,1:30,267.2,12.7,101.1,1372.466,,
01/06/10,2:00,267.8,12.7,100.5,1372.472,,
01/06/10,2:30,267.7,12.7,100.6,1372.471,,
01/06/10,3:00,267.7,12.7,100.6,1372.471,,
01/06/10,3:30,267.6,12.8,100.7,1372.470,,
01/06/10,4:00,267.6,12.7,100.7,1372.470,,
01/06/10,4:30,268.1,12.8,100.2,1372.475,,
01/06/10,5:00,267.9,12.8,100.4,1372.473,,
01/06/10,5:30,268.0,12.8,100.3,1372.474,,
01/06/10,6:00,267.8,12.7,100.5,1372.472,,
01/06/10,6:30,267.2,12.8,101.1,1372.466,,
01/06/10,7:00,268.1,12.8,100.2,1372.475,,
01/06/10,7:30,267.8,12.7,100.5,1372.472,,
01/06/10,8:00,268.4,12.8,99.9,1372.478,,
01/06/10,8:30,267.8,12.8,100.5,1372.472,,
01/06/10,9:00,267.6,12.7,100.7,1372.470,,
01/06/10,9:30,268.3,12.7,100.0,1372.477,,
01/06/10,10:00,267.4,12.7,100.9,1372.468,,
01/06/10,10:30,267.3,12.8,101.0,1372.467,,
01/06/10,11:00,266.7,12.8,101.6,1372.461,,
01/06/10,11:30,266.9,12.7,101.4,1372.463,,
01/06/10,12:00,266.8,12.7,101.5,1372.462,,
01/06/10,12:30,267.4,12.8,100.9,1372.468,,
01/06/10,13:00,268.0,12.8,100.3,1372.474,,
01/06/10,13:30,267.9,12.8,100.4,1372.473,,
01/06/10,14:00,268.0,12.8,100.3,1372.474,,
01/06/10,14:30,268.5,12.8,99.8,1372.479,,
01/06/10,15:00,268.5,12.8,99.8,1372.479,,
01/06/10,15:30,268.4,12.7,99.9,1372.478,,
01/06/10,16:00,268.2,12.7,100.1,1372.476,,
01/06/10,16:30,268.4,12.8,99.9,1372.478,,
01/06/10,17:00,267.8,12.8,100.5,1372.472,,
01/06/10,17:30,268.3,12.7,100.0,1372.477,,
01/06/10,18:00,268.1,12.7,100.2,1372.475,,
01/06/10,18:30,268.6,12.7,99.7,1372.480,,
01/06/10,19:00,267.9,12.7,100.4,1372.473,,
01/06/10,19:30,267.9,12.7,100.4,1372.473,,
01/06/10,20:00,267.3,12.8,101.0,1372.467,,
01/06/10,20:30,267.7,12.7,100.6,1372.471,,
01/06/10,21:00,267.7,12.7,100.6,1372.471,,
01/06/10,21:30,267.8,12.7,100.5,1372.472,,
01/06/10,22:00,268.1,12.7,100.2,1372.475,,
01/06/10,22:30,267.8,12.8,100.5,1372.472,,
01/06/10,23:00,267.9,12.7,100.4,1372.473,,
01/06/10,23:30,267.3,12.7,101.0,1372.467,,
01/07/10,0:00,267.6,12.7,100.7,1372.470,,
01/07/10,0:30,267.7,12.7,100.6,1372.471,,
01/07/10,1:00,267.8,12.7,100.5,1372.472,,
01/07/10,1:30,268.0,12.8,100.3,1372.474,,
01/07/10,2:00,267.6,12.7,100.7,1372.470,,
01/07/10,2:30,268.6,12.7,99.7,1372.480,,
01/07/10,3:00,267.9,12.8,100.4,1372.473,,
01/07/10,3:30,267.9,12.8,100.4,1372.473,,
01/07/10,4:00,268.2,12.7,100.1,1372.476,,
01/07/10,4:30,268.1,12.8,100.2,1372.475,,
01/07/10,5:00,267.5,12.8,100.8,1372.469,,
01/07/10,5:30,268.0,12.7,100.3,1372.474,,
01/07/10,6:00,268.2,12.8,100.1,1372.476,,
01/07/10,6:30,267.9,12.7,100.4,1372.473,,
01/07/10,7:00,267.8,12.7,100.5,1372.472,,
01/07/10,7:30,267.9,12.7,100.4,1372.473,,
01/07/10,8:00,267.7,12.7,100.6,1372.471,,
01/07/10,8:30,267.4,12.7,100.9,1372.468,,
01/07/10,9:00,267.4,12.7,100.9,1372.468,,
01/07/10,9:30,267.4,12.7,100.9,1372.468,,
01/07/10,10:00,267.5,12.7,100.8,1372.469,,
01/07/10,10:30,267.1,12.7,101.2,1372.465,,
01/07/10,11:00,267.3,12.7,101.0,1372.467,,
01/07/10,11:30,266.8,12.7,101.5,1372.462,,
01/07/10,12:00,266.7,12.7,101.6,1372.461,,
01/07/10,12:30,267.4,12.7,100.9,1372.468,,
01/07/10,13:00,267.2,12.7,101.1,1372.466,,
01/07/10,13:30,267.7,12.7,100.6,1372.471,,
01/07/10,14:00,267.8,12.7,100.5,1372.472,,
01/07/10,14:30,267.5,12.7,100.8,1372.469,,
01/07/10,15:00,267.5,12.7,100.8,1372.469,,
01/07/10,15:30,267.9,12.7,100.4,1372.473,,
01/07/10,16:00,268.1,12.7,100.2,1372.475,,
01/07/10,16:30,268.1,12.7,100.2,1372.475,,
01/07/10,17:00,267.8,12.7,100.5,1372.472,,
01/07/10,17:30,268.0,12.7,100.3,1372.474,,
01/07/10,18:00,267.9,12.7,100.4,1372.473,,
01/07/10,18:30,267.1,12.7,101.2,1372.465,,
01/07/10,19:00,268.1,12.7,100.2,1372.475,,
01/07/10,19:30,267.2,12.7,101.1,1372.466,,
01/07/10,20:00,267.6,12.7,100.7,1372.470,,
01/07/10,20:30,267.4,12.7,100.9,1372.468,,
01/07/10,21:00,267.3,12.7,101.0,1372.467,,
01/07/10,21:30,267.0,12.7,101.3,1372.464,,
01/07/10,22:00,267.4,12.7,100.9,1372.468,,
01/07/10,22:30,267.1,12.7,101.2,1372.465,,
01/07/10,23:00,267.4,12.7,100.9,1372.468,,
01/07/10,23:30,267.2,12.7,101.1,1372.466,,
01/08/10,0:00,267.4,12.8,100.9,1372.468,,
01/08/10,0:30,267.2,12.7,101.1,1372.466,,
01/08/10,1:00,267.1,12.7,101.2,1372.465,,
01/08/10,1:30,267.6,12.7,100.7,1372.470,,
01/08/10,2:00,267.5,12.7,100.8,1372.469,,
01/08/10,2:30,267.3,12.7,101.0,1372.467,,
01/08/10,3:00,267.8,12.7,100.5,1372.472,,
01/08/10,3:30,267.4,12.7,100.9,1372.468,,
01/08/10,4:00,267.5,12.7,100.8,1372.469,,
01/08/10,4:30,267.5,12.7,100.8,1372.469,,
01/08/10,5:00,267.4,12.7,100.9,1372.468,,
01/08/10,5:30,267.5,12.7,100.8,1372.469,,
01/08/10,6:00,267.2,12.7,101.1,1372.466,,
01/08/10,6:30,267.2,12.7,101.1,1372.466,,
01/08/10,7:00,267.7,12.7,100.6,1372.471,,
01/08/10,7:30,267.5,12.7,100.8,1372.469,,
01/08/10,8:00,267.1,12.7,101.2,1372.465,,
01/08/10,8:30,267.0,12.7,101.3,1372.464,,
01/08/10,9:00,267.1,12.7,101.2,1372.465,,
01/08/10,9:30,267.1,12.7,101.2,1372.465,,
01/08/10,10:00,267.1,12.7,101.2,1372.465,,
01/08/10,10:30,267.4,12.7,100.9,1372.468,,
01/08/10,11:00,267.2,12.7,101.1,1372.466,,
01/08/10,11:30,266.9,12.7,101.4,1372.463,,
01/08/10,12:00,267.3,12.7,101.0,1372.467,,
01/08/10,12:30,267.3,12.7,101.0,1372.467,,
01/08/10,13:00,267.4,12.7,100.9,1372.468,,
01/08/10,13:30,267.6,12.7,100.7,1372.470,,
01/08/10,14:00,268.0,12.7,100.3,1372.474,,
01/08/10,14:30,267.4,12.7,100.9,1372.468,,
01/08/10,15:00,267.5,12.7,100.8,1372.469,,
01/08/10,15:30,267.9,12.7,100.4,1372.473,,
01/08/10,16:00,268.5,12.7,99.8,1372.479,,
01/08/10,16:30,267.7,12.7,100.6,1372.471,,
01/08/10,17:00,268.2,12.7,100.1,1372.476,,
01/08/10,17:30,268.1,12.7,100.2,1372.475,,
01/08/10,18:00,268.1,12.7,100.2,1372.475,,
01/08/10,18:30,268.0,12.7,100.3,1372.474,,
01/08/10,19:00,267.4,12.7,100.9,1372.468,,
01/08/10,19:30,267.7,12.7,100.6,1372.471,,
01/08/10,20:00,267.2,12.7,101.1,1372.466,,
01/08/10,20:30,266.8,12.7,101.5,1372.462,,
01/08/10,21:00,267.4,12.7,100.9,1372.468,,
01/08/10,21:30,266.5,12.7,101.8,1372.459,,
01/08/10,22:00,266.4,12.7,101.9,1372.458,,
01/08/10,22:30,266.3,12.7,102.0,1372.457,,
01/08/10,23:00,266.8,12.7,101.5,1372.462,,
01/08/10,23:30,266.5,12.7,101.8,1372.459,,
01/09/10,0:00,266.4,12.7,101.9,1372.458,,
01/09/10,0:30,266.3,12.7,102.0,1372.457,,
01/09/10,1:00,266.8,12.7,101.5,1372.462,,
01/09/10,1:30,266.3,12.7,102.0,1372.457,,
01/09/10,2:00,266.8,12.7,101.5,1372.462,,
01/09/10,2:30,267.7,12.7,100.6,1372.471,,
01/09/10,3:00,267.0,12.7,101.3,1372.464,,
01/09/10,3:30,267.1,12.7,101.2,1372.465,,
01/09/10,4:00,266.9,12.7,101.4,1372.463,,
01/09/10,4:30,267.1,12.7,101.2,1372.465,,
01/09/10,5:00,267.1,12.7,101.2,1372.465,,
01/09/10,5:30,267.2,12.7,101.1,1372.466,,
01/09/10,6:00,267.3,12.7,101.0,1372.467,,
01/09/10,6:30,267.2,12.7,101.1,1372.466,,
01/09/10,7:00,267.1,12.7,101.2,1372.465,,
01/09/10,7:30,267.5,12.7,100.8,1372.469,,
01/09/10,8:00,267.5,12.7,100.8,1372.469,,
01/09/10,8:30,266.8,12.7,101.5,1372.462,,
01/09/10,9:00,267.7,12.7,100.6,1372.471,,
01/09/10,9:30,267.4,12.7,100.9,1372.468,,
01/09/10,10:00,266.6,12.7,101.7,1372.460,,
01/09/10,10:30,266.8,12.7,101.5,1372.462,,
01/09/10,11:00,266.7,12.7,101.6,1372.461,,
01/09/10,11:30,266.7,12.7,101.6,1372.461,,
01/09/10,12:00,266.9,12.7,101.4,1372.463,,
01/09/10,12:30,267.3,12.7,101.0,1372.467,,
01/09/10,13:00,267.6,12.7,100.7,1372.470,,
01/09/10,13:30,268.1,12.7,100.2,1372.475,,
01/09/10,14:00,267.7,12.7,100.6,1372.471,,
01/09/10,14:30,268.1,12.7,100.2,1372.475,,
01/09/10,15:00,268.2,12.7,100.1,1372.476,,
01/09/10,15:30,268.5,12.7,99.8,1372.479,,
01/09/10,16:00,268.2,12.7,100.1,1372.476,,
01/09/10,16:30,268.4,12.7,99.9,1372.478,,
01/09/10,17:00,268.2,12.7,100.1,1372.476,,
01/09/10,17:30,268.4,12.7,99.9,1372.478,,
01/09/10,18:00,268.2,12.7,100.1,1372.476,,
01/09/10,18:30,268.3,12.7,100.0,1372.477,,
01/09/10,19:00,268.1,12.7,100.2,1372.475,,
01/09/10,19:30,267.4,12.7,100.9,1372.468,,
01/09/10,20:00,267.8,12.7,100.5,1372.472,,
01/09/10,20:30,267.8,12.7,100.5,1372.472,,
01/09/10,21:00,267.5,12.7,100.8,1372.469,,
01/09/10,21:30,267.7,12.7,100.6,1372.471,,
01/09/10,22:00,267.4,12.7,100.9,1372.468,,
01/09/10,22:30,267.4,12.7,100.9,1372.468,,
01/09/10,23:00,267.4,12.7,100.9,1372.468,,
01/09/10,23:30,267.4,12.7,100.9,1372.468,,
01/10/10,0:00,267.6,12.7,100.7,1372.470,,
01/10/10,0:30,267.4,12.7,100.9,1372.468,,
01/10/10,1:00,267.5,12.7,100.8,1372.469,,
01/10/10,1:30,267.5,12.7,100.8,1372.469,,
01/10/10,2:00,267.6,12.7,100.7,1372.470,,
01/10/10,2:30,267.9,12.7,100.4,1372.473,,
01/10/10,3:00,267.7,12.7,100.6,1372.471,,
01/10/10,3:30,267.6,12.7,100.7,1372.470,,
01/10/10,4:00,267.7,12.7,100.6,1372.471,,
01/10/10,4:30,267.4,12.7,100.9,1372.468,,
01/10/10,5:00,267.4,12.7,100.9,1372.468,,
01/10/10,5:30,267.8,12.7,100.5,1372.472,,
01/10/10,6:00,267.5,12.7,100.8,1372.469,,
01/10/10,6:30,267.5,12.7,100.8,1372.469,,
01/10/10,7:00,267.9,12.7,100.4,1372.473,,
01/10/10,7:30,267.2,12.7,101.1,1372.466,,
01/10/10,8:00,267.3,12.7,101.0,1372.467,,
01/10/10,8:30,267.5,12.7,100.8,1372.469,,
01/10/10,9:00,267.8,12.7,100.5,1372.472,,
01/10/10,9:30,267.5,12.7,100.8,1372.469,,
01/10/10,10:00,267.0,12.7,101.3,1372.464,,
01/10/10,10:30,266.9,12.7,101.4,1372.463,,
01/10/10,11:00,266.9,12.7,101.4,1372.463,,
01/10/10,11:30,267.5,12.7,100.8,1372.469,,
01/10/10,12:00,267.6,12.7,100.7,1372.470,,
01/10/10,12:30,267.8,12.7,100.5,1372.472,,
01/10/10,13:00,267.9,12.7,100.4,1372.473,,
01/10/10,13:30,267.9,12.7,100.4,1372.473,,
01/10/10,14:00,268.1,12.7,100.2,1372.475,,
01/10/10,14:30,268.3,12.6,100.0,1372.477,,
01/10/10,15:00,268.5,12.7,99.8,1372.479,,
01/10/10,15:30,268.6,12.7,99.7,1372.480,,
01/10/10,16:00,268.4,12.6,99.9,1372.478,,
01/10/10,16:30,268.3,12.7,100.0,1372.477,,
01/10/10,17:00,268.0,12.7,100.3,1372.474,,
01/10/10,17:30,268.1,12.6,100.2,1372.475,,
01/10/10,18:00,267.8,12.7,100.5,1372.472,,
01/10/10,18:30,268.7,12.7,99.6,1372.481,,
01/10/10,19:00,267.9,12.7,100.4,1372.473,,
01/10/10,19:30,267.6,12.6,100.7,1372.470,,
01/10/10,20:00,267.7,12.7,100.6,1372.471,,
01/10/10,20:30,267.3,12.6,101.0,1372.467,,
01/10/10,21:00,268.1,12.7,100.2,1372.475,,
01/10/10,21:30,267.2,12.6,101.1,1372.466,,
01/10/10,22:00,267.2,12.6,101.1,1372.466,,
01/10/10,22:30,267.1,12.7,101.2,1372.465,,
01/10/10,23:00,267.4,12.7,100.9,1372.468,,
01/10/10,23:30,266.9,12.7,101.4,1372.463,,
01/11/10,0:00,267.2,12.7,101.1,1372.466,,
01/11/10,0:30,266.7,12.6,101.6,1372.461,,
01/11/10,1:00,267.1,12.6,101.2,1372.465,,
01/11/10,1:30,267.5,12.6,100.8,1372.469,,
01/11/10,2:00,267.6,12.5,100.7,1372.470,,
01/11/10,2:30,267.1,12.6,101.2,1372.465,,
01/11/10,3:00,267.4,12.6,100.9,1372.468,,
01/11/10,3:30,267.0,12.6,101.3,1372.464,,
01/11/10,4:00,267.5,12.6,100.8,1372.469,,
01/11/10,4:30,267.7,12.6,100.6,1372.471,,
01/11/10,5:00,267.9,12.5,100.4,1372.473,,
01/11/10,5:30,267.7,12.6,100.6,1372.471,,
01/11/10,6:00,267.2,12.6,101.1,1372.466,,
01/11/10,6:30,267.9,12.7,100.4,1372.473,,
01/11/10,7:00,268.3,12.6,100.0,1372.477,,
01/11/10,7:30,267.9,12.7,100.4,1372.473,,
01/11/10,8:00,267.9,12.6,100.4,1372.473,,
01/11/10,8:30,267.1,12.6,101.2,1372.465,,
01/11/10,9:00,267.7,12.6,100.6,1372.471,,
01/11/10,9:30,267.3,12.7,101.0,1372.467,,
01/11/10,10:00,267.6,12.7,100.7,1372.470,,
01/11/10,10:30,267.6,12.7,100.7,1372.470,,
01/11/10,11:00,267.3,12.6,101.0,1372.467,,
01/11/10,11:30,267.7,12.7,100.6,1372.471,,
01/11/10,12:00,267.2,12.7,101.1,1372.466,,
01/11/10,12:30,267.6,12.6,100.7,1372.470,,
01/11/10,13:00,268.1,12.6,100.2,1372.475,,
01/11/10,13:30,267.7,12.6,100.6,1372.471,,
01/11/10,14:00,267.9,12.6,100.4,1372.473,,
01/11/10,14:30,268.0,12.5,100.3,1372.474,,
01/11/10,15:00,268.0,12.6,100.3,1372.474,,
01/11/10,15:30,268.3,12.6,100.0,1372.477,,
01/11/10,16:00,267.7,12.6,100.6,1372.471,,
01/11/10,16:30,267.7,12.6,100.6,1372.471,,
01/11/10,17:00,268.0,12.7,100.3,1372.474,,
01/11/10,17:30,268.1,12.6,100.2,1372.475,,
01/11/10,18:00,267.7,12.7,100.6,1372.471,,
01/11/10,18:30,267.3,12.7,101.0,1372.467,,
01/11/10,19:00,266.9,12.6,101.4,1372.463,,
01/11/10,19:30,267.3,12.6,101.0,1372.467,,
01/11/10,20:00,267.3,12.6,101.0,1372.467,,
01/11/10,20:30,267.3,12.6,101.0,1372.467,,
01/11/10,21:00,267.1,12.6,101.2,1372.465,,
01/11/10,21:30,267.1,12.6,101.2,1372.465,,
01/11/10,22:00,267.0,12.6,101.3,1372.464,,
01/11/10,22:30,266.8,12.6,101.5,1372.462,,
01/11/10,23:00,266.6,12.6,101.7,1372.460,,
01/11/10,23:30,266.9,12.6,101.4,1372.463,,
01/12/10,0:00,266.8,12.7,101.5,1372.462,,
01/12/10,0:30,266.9,12.7,101.4,1372.463,,
01/12/10,1:00,266.5,12.7,101.8,1372.459,,
01/12/10,1:30,267.0,12.7,101.3,1372.464,,
01/12/10,2:00,266.9,12.7,101.4,1372.463,,
01/12/10,2:30,266.6,12.6,101.7,1372.460,,
01/12/10,3:00,266.7,12.6,101.6,1372.461,,
01/12/10,3:30,266.2,12.6,102.1,1372.456,,
01/12/10,4:00,266.6,12.6,101.7,1372.460,,
01/12/10,4:30,266.2,12.6,102.1,1372.456,,
01/12/10,5:00,266.2,12.6,102.1,1372.456,,